Weather History for KVYS - March, 2014

Change the Weather History Date:

Sunday, March 23, 2014

  Actual Average Record
Temperature  
Mean Temperature 26 °F -  
Max Temperature 32 °F 51 °F 72 °F (1988)
Min Temperature 21 °F 29 °F 10 °F (1965)
Degree Days  
Heating Degree Days 39    
Moisture  
Dew Point 14 °F    
Average Humidity 59    
Maximum Humidity 79    
Minimum Humidity 45    
Precipitation  
Precipitation 0.00 in - - ()
Sea Level Pressure  
Sea Level Pressure 30.40 in    
Wind  
Wind Speed 11 mph (NNW)    
Max Wind Speed 17 mph    
Max Gust Speed 22 mph    
Visibility 10 miles    
Events      
Averages and records for this station are not official NWS values.
T = Trace of Precipitation, MM = Missing Value Source: NWS Daily Summary

Daily Weather History Graph

Daily Weather History Graph

Search for Another Location

Airport or City:

Trip Planner

Search our weather history database for the weather conditions in past years. The results will help you decide how hot, cold, wet, or windy it might be!

Date:

Astronomy

Mar. 23, 2014 Rise Set
Actual Time 6:54 AM CDT 7:12 PM CDT
Civil Twilight 6:27 AM CDT 7:39 PM CDT
Nautical Twilight 5:54 AM CDT 8:12 PM CDT
Astronomical Twilight 5:21 AM CDT 8:45 PM CDT
Moon 1:32 AM CDT (3/23) 11:32 AM CDT (3/23)
Length of Visible Light 13h 12m
Length of Day
12h 17m
Waning Gibbous, 54% of the Moon is Illuminated
Mar 23
Waning Gibbous
Mar 23
Last Quarter
Mar 30
New
Apr 7
First Quarter
Apr 15
Full

Hourly Weather History & Observations

Time (CDT) Temp. Windchill Dew Point Humidity Pressure Visibility Wind Dir Wind Speed Gust Speed Precip Events Conditions
12:10 AM 29.3 °F 19.1 °F 16.7 °F 59% 30.34 in 10.0 mi NNW 12.7 mph 17.3 mph N/A   Clear
12:30 AM 29.1 °F 20.0 °F 16.3 °F 59% 30.35 in 10.0 mi NNW 10.4 mph - N/A   Scattered Clouds
12:50 AM 28.9 °F 18.6 °F 16.5 °F 60% 30.36 in 10.0 mi NNW 12.7 mph - N/A   Overcast
1:10 AM 28.6 °F 18.2 °F 16.7 °F 61% 30.36 in 10.0 mi North 12.7 mph - N/A   Mostly Cloudy
1:30 AM 28.0 °F 16.5 °F 15.6 °F 60% 30.37 in 10.0 mi North 15.0 mph - N/A   Mostly Cloudy
1:50 AM 27.5 °F 15.9 °F 15.3 °F 60% 30.38 in 10.0 mi North 15.0 mph 20.7 mph N/A   Mostly Cloudy
2:10 AM 27.1 °F 15.9 °F 14.4 °F 59% 30.38 in 10.0 mi North 13.8 mph 21.9 mph N/A   Mostly Cloudy
2:30 AM 26.6 °F 13.8 °F 13.5 °F 58% 30.38 in 10.0 mi North 17.3 mph 21.9 mph N/A   Mostly Cloudy
2:50 AM 26.1 °F 14.0 °F 13.8 °F 60% 30.38 in 10.0 mi North 15.0 mph - N/A   Mostly Cloudy
3:10 AM 25.7 °F 13.1 °F 13.8 °F 61% 30.39 in 10.0 mi North 16.1 mph - N/A   Mostly Cloudy
3:30 AM 25.2 °F 12.0 °F 14.0 °F 63% 30.39 in 10.0 mi North 17.3 mph - N/A   Mostly Cloudy
3:50 AM 24.8 °F 11.5 °F 13.3 °F 62% 30.40 in 10.0 mi North 17.3 mph - N/A   Scattered Clouds
4:10 AM 24.6 °F 11.7 °F 13.3 °F 62% 30.40 in 10.0 mi North 16.1 mph - N/A   Mostly Cloudy
4:30 AM 24.4 °F 11.0 °F 14.4 °F 66% 30.41 in 10.0 mi North 17.3 mph - N/A   Scattered Clouds
4:50 AM 23.7 °F 11.0 °F 14.0 °F 66% 30.41 in 10.0 mi North 15.0 mph 18.4 mph N/A   Clear
5:10 AM 23.0 °F 10.1 °F 12.2 °F 63% 30.41 in 10.0 mi North 15.0 mph 20.7 mph N/A   Clear
5:30 AM 23.0 °F 10.1 °F 12.0 °F 63% 30.41 in 10.0 mi North 15.0 mph 19.6 mph N/A   Clear
5:50 AM 22.5 °F 11.7 °F 12.0 °F 64% 30.41 in 10.0 mi North 10.4 mph - N/A   Clear
6:10 AM 21.9 °F 9.2 °F 12.7 °F 68% 30.42 in 10.0 mi North 13.8 mph - N/A   Clear
6:30 AM 21.9 °F 9.2 °F 12.9 °F 68% 30.43 in 10.0 mi North 13.8 mph 17.3 mph N/A   Clear
6:50 AM 21.2 °F 8.3 °F 11.7 °F 67% 30.43 in 10.0 mi North 13.8 mph - N/A   Clear
7:10 AM 21.2 °F 8.9 °F 12.2 °F 68% 30.44 in 10.0 mi North 12.7 mph - N/A   Clear
7:30 AM 21.0 °F 8.1 °F 11.5 °F 67% 30.44 in 10.0 mi North 13.8 mph - N/A   Clear
7:50 AM 21.6 °F 9.3 °F 11.5 °F 65% 30.45 in 10.0 mi North 12.7 mph 18.4 mph N/A   Clear
8:10 AM 21.9 °F 9.2 °F 10.4 °F 61% 30.45 in 10.0 mi North 13.8 mph - N/A   Clear
8:30 AM 21.9 °F 11.0 °F 11.3 °F 64% 30.45 in 10.0 mi North 10.4 mph - N/A   Clear
8:50 AM 22.1 °F 10.0 °F 10.9 °F 62% 30.45 in 10.0 mi North 12.7 mph - N/A   Clear
9:10 AM 23.5 °F 13.0 °F 11.5 °F 60% 30.46 in 10.0 mi North 10.4 mph - N/A   Clear
9:30 AM 23.7 °F 12.6 °F 12.0 °F 61% 30.46 in 10.0 mi North 11.5 mph - N/A   Clear
9:50 AM 24.6 °F 15.1 °F 12.7 °F 61% 30.46 in 10.0 mi North 9.2 mph - N/A   Clear
10:10 AM 25.3 °F 16.0 °F 12.9 °F 59% 30.46 in 10.0 mi NNW 9.2 mph 16.1 mph N/A   Clear
10:30 AM 25.7 °F 17.1 °F 13.3 °F 59% 30.46 in 10.0 mi NNW 8.1 mph - N/A   Scattered Clouds
10:50 AM 25.9 °F 16.6 °F 12.4 °F 57% 30.46 in 10.0 mi NW 9.2 mph - N/A   Scattered Clouds
11:10 AM 25.7 °F 18.0 °F 11.8 °F 56% 30.45 in 10.0 mi NNW 6.9 mph - N/A   Scattered Clouds
11:30 AM 27.1 °F 16.9 °F 12.9 °F 55% 30.45 in 10.0 mi NNW 11.5 mph - N/A   Scattered Clouds
11:50 AM 27.5 °F 18.0 °F 12.4 °F 53% 30.45 in 10.0 mi NNW 10.4 mph - N/A   Scattered Clouds
12:10 PM 27.5 °F 19.3 °F 12.4 °F 53% 30.44 in 10.0 mi NW 8.1 mph - N/A   Scattered Clouds
12:30 PM 28.0 °F 21.7 °F 11.8 °F 51% 30.44 in 10.0 mi NW 5.8 mph 16.1 mph N/A   Scattered Clouds
12:50 PM 28.4 °F 18.5 °F 12.4 °F 51% 30.43 in 10.0 mi WNW 11.5 mph - N/A   Scattered Clouds
1:10 PM 29.3 °F 19.1 °F 14.0 °F 53% 30.43 in 10.0 mi NNW 12.7 mph 16.1 mph N/A   Scattered Clouds
1:30 PM 28.9 °F 19.8 °F 12.7 °F 51% 30.42 in 10.0 mi NNW 10.4 mph - N/A   Scattered Clouds
1:50 PM 29.3 °F 19.1 °F 12.6 °F 50% 30.42 in 10.0 mi NNW 12.7 mph - N/A   Scattered Clouds
2:10 PM 29.8 °F 20.3 °F 12.4 °F 48% 30.41 in 10.0 mi NW 11.5 mph 17.3 mph N/A   Scattered Clouds
2:30 PM 30.4 °F 21.5 °F 14.9 °F 53% 30.40 in 10.0 mi WNW 10.4 mph 16.1 mph N/A   Scattered Clouds
2:50 PM 30.2 °F 20.2 °F 14.0 °F 51% 30.40 in 10.0 mi NW 12.7 mph 17.3 mph N/A   Scattered Clouds
3:10 PM 30.2 °F 21.3 °F 13.1 °F 49% 30.39 in 10.0 mi NNW 10.4 mph - N/A   Scattered Clouds
3:30 PM 29.7 °F 18.2 °F 13.3 °F 51% 30.39 in 10.0 mi NW 16.1 mph - N/A   Scattered Clouds
3:50 PM 31.1 °F 23.7 °F 14.0 °F 49% 30.39 in 10.0 mi West 8.1 mph - N/A   Mostly Cloudy
4:10 PM 31.8 °F 23.9 °F 14.5 °F 49% 30.38 in 10.0 mi West 9.2 mph 16.1 mph N/A   Overcast
4:30 PM 31.8 °F 22.8 °F 14.7 °F 49% 30.38 in 10.0 mi WNW 11.5 mph 17.3 mph N/A   Mostly Cloudy
4:50 PM 31.6 °F 21.2 °F 13.8 °F 48% 30.38 in 10.0 mi NW 15.0 mph 18.4 mph N/A   Scattered Clouds
5:10 PM 30.7 °F 22.6 °F 13.1 °F 48% 30.38 in 10.0 mi WNW 9.2 mph - N/A   Scattered Clouds
5:30 PM 31.6 °F 23.1 °F 12.7 °F 46% 30.38 in 10.0 mi NW 10.4 mph 18.4 mph N/A   Scattered Clouds
5:50 PM 31.1 °F 20.9 °F 11.7 °F 45% 30.38 in 10.0 mi WNW 13.8 mph - N/A   Scattered Clouds
6:10 PM 30.9 °F 21.7 °F 12.0 °F 46% 30.38 in 10.0 mi NW 11.5 mph - N/A   Clear
6:30 PM 30.7 °F 20.9 °F 12.0 °F 46% 30.38 in 10.0 mi NW 12.7 mph 17.3 mph N/A   Clear
6:50 PM 30.2 °F 22.6 °F 12.4 °F 48% 30.37 in 10.0 mi NNW 8.1 mph - N/A   Clear
7:10 PM 29.3 °F - 12.9 °F 51% 30.37 in 10.0 mi Calm Calm - N/A   Clear
7:30 PM 28.9 °F 21.9 °F 13.3 °F 52% 30.36 in 10.0 mi NNW 6.9 mph - N/A   Clear
7:50 PM 28.4 °F 23.3 °F 14.7 °F 57% 30.36 in 10.0 mi NNW 4.6 mph - N/A   Clear
8:10 PM 27.9 °F 22.6 °F 15.6 °F 60% 30.36 in 10.0 mi NNW 4.6 mph - N/A   Clear
8:30 PM 27.5 °F - 16.2 °F 62% 30.36 in 10.0 mi Calm Calm - N/A   Clear
8:50 PM 27.5 °F 23.6 °F 16.5 °F 63% 30.36 in 10.0 mi NNW 3.5 mph - N/A   Clear
9:10 PM 27.5 °F - 16.7 °F 64% 30.36 in 10.0 mi Calm Calm - N/A   Clear
9:30 PM 27.1 °F - 17.6 °F 67% 30.36 in 10.0 mi Calm Calm - N/A   Clear
9:50 PM 27.5 °F - 18.1 °F 68% 30.36 in 10.0 mi Calm Calm - N/A   Clear
10:10 PM 26.6 °F - 19.0 °F 73% 30.37 in 10.0 mi Calm Calm - N/A   Clear
10:30 PM 25.5 °F - 19.8 °F 79% 30.37 in 10.0 mi Calm Calm - N/A   Clear
10:50 PM 24.8 °F - 18.1 °F 76% 30.37 in 10.0 mi Calm Calm - N/A   Clear
11:10 PM 24.6 °F - 18.3 °F 77% 30.38 in 10.0 mi Calm Calm - N/A   Clear
11:30 PM 26.2 °F - 17.6 °F 70% 30.38 in 10.0 mi Calm Calm - N/A   Clear
11:50 PM 25.7 °F - 18.5 °F 74% 30.38 in 10.0 mi Calm Calm - N/A   Clear